VE3MNX Weather Reports


time (UTC)temp
C
wind
direction
speed
KPH
gust
KPH
rain 1hr
cm
rain 24hr
cm
rain mn
cm
humidity
%
barometer
mb
20260509032438 10 271 9.7 11.3 0.00 0.00 0.00 99 1006.4
20260509030937 10 246 4.8 9.7 0.00 0.00 0.00 99 1006.8
20260509025437 10 254 8.0 9.7 0.00 0.00 0.00 99 1007.1
20260509023937 10 252 4.8 8.0 0.00 0.00 0.00 99 1007.1
20260509022437 10 228 4.8 8.0 0.00 0.00 0.00 99 1007.1
20260509020937 9 231 4.8 9.7 0.00 0.00 0.00 99 1007.1
20260509015437 9 241 4.8 9.7 0.00 0.00 0.00 98 1007.5
20260509013937 9 220 8.0 9.7 0.00 0.00 0.00 98 1007.1
20260509012437 9 234 4.8 9.7 0.00 0.00 0.00 98 1007.1
20260509010937 10 207 9.7 12.9 0.00 0.00 0.00 97 1007.1
20260509005438 10 191 9.7 20.9 0.00 0.00 0.00 96 1006.8
20260509003937 10 191 9.7 11.3 0.00 0.00 0.00 96 1006.8
20260509002444 9 186 9.7 12.9 0.00 0.00 0.00 96 1007.1
20260509000942 10 184 14.5 22.5 0.00 0.00 0.00 95 1006.9
20260508235437 10 178 14.5 19.3 0.00 0.00 0.00 95 1007.0
20260508233937 10 181 11.3 14.5 0.00 0.00 0.00 95 1006.8
20260508232439 10 188 12.9 19.3 0.00 0.00 0.00 95 1006.8
20260508230937 10 122 9.7 14.5 0.00 0.00 0.00 95 1006.8
20260508225437 10 233 3.2 11.3 0.00 0.00 0.00 95 1006.8
20260508223936 10 84 3.2 11.3 0.00 0.00 0.00 95 1007.5
20260508222437 10 182 1.6 14.5 0.00 0.00 0.00 95 1007.5
20260508220937 10 201 4.8 16.1 0.00 0.00 0.00 94 1007.8
20260508215438 10 131 4.8 19.3 0.00 0.00 0.00 94 1007.5
20260508213938 10 49 1.6 12.9 0.00 0.00 0.00 93 1007.5
20260508212437 10 216 1.6 9.7 0.00 0.00 0.00 92 1007.5
20260508210937 11 157 1.6 11.3 0.00 0.00 0.00 90 1007.5
20260508205437 11 138 3.2 12.9 0.00 0.00 0.00 89 1007.8
20260508203937 11 189 4.8 9.7 0.00 0.00 0.00 91 1008.1
20260508202438 11 202 11.3 12.9 0.00 0.00 0.00 89 1008.5
20260508200938 11 120 1.6 9.7 0.00 0.00 0.00 88 1008.8
20260508195438 12 145 3.2 11.3 0.00 0.00 0.00 88 1008.7
20260508193938 11 178 3.2 9.7 0.00 0.00 0.00 89 1009.2
20260508192438 10 181 9.7 12.9 0.00 0.00 0.00 87 1009.5
20260508190938 10 177 8.0 14.5 0.00 0.00 0.00 89 1009.1
20260508185438 10 178 11.3 16.1 0.00 0.00 0.00 90 1009.1
20260508183940 10 180 9.7 14.5 0.00 0.00 0.00 88 1009.5
20260508182439 10 172 11.3 14.5 0.00 0.00 0.00 87 1009.5
20260508180938 10 182 11.3 16.1 0.00 0.00 0.00 89 1009.8
20260508175439 10 184 12.9 16.1 0.00 0.00 0.00 89 1010.2
20260508173938 10 164 12.9 16.1 0.00 0.00 0.00 90 1010.2
20260508172439 10 212 12.9 14.5 0.00 0.00 0.00 88 1010.2
20260508170938 11 163 4.8 9.7 0.00 0.00 0.00 87 1010.5
20260508165439 11 172 4.8 9.7 0.00 0.00 0.00 86 1010.8
20260508163940 10 184 8.0 9.7 0.00 0.00 0.00 87 1010.5
20260508162439 11 184 4.8 9.7 0.00 0.00 0.00 86 1010.8
20260508160942 10 168 4.8 8.0 0.00 0.00 0.00 85 1010.5
20260508155438 11 155 4.8 9.7 0.00 0.00 0.00 83 1011.1
20260508153938 10 119 3.2 8.0 0.00 0.00 0.00 85 1011.0
20260508152438 10 115 3.2 9.7 0.00 0.00 0.00 85 1011.1
20260508150940 11 173 3.2 4.8 0.00 0.00 0.00 82 1011.2
20260508145438 10 175 4.8 8.0 0.00 0.00 0.00 82 1011.2
20260508143940 10 156 3.2 3.2 0.00 0.00 0.00 83 1011.2
20260508142439 10 165 3.2 4.8 0.00 0.00 0.00 81 1011.2
20260508140939 10 174 4.8 4.8 0.00 0.00 0.00 81 1011.2
20260508135439 10 115 3.2 8.0 0.00 0.00 0.00 79 1011.2
20260508133939 10 144 4.8 8.0 0.00 0.00 0.00 81 1011.2
20260508132438 9 77 1.6 3.2 0.00 0.00 0.00 82 1011.2
20260508130940 10 115 1.6 8.0 0.00 0.00 0.00 79 1011.2
20260508125438 9 120 3.2 4.8 0.00 0.00 0.00 80 1011.2
20260508123938 9 126 4.8 8.0 0.00 0.00 0.00 80 1011.2
20260508122439 8 118 3.2 4.8 0.00 0.00 0.00 82 1011.2
20260508120939 8 103 3.2 4.8 0.00 0.00 0.00 83 1010.8
20260508115438 8 103 4.8 4.8 0.00 0.00 0.00 82 1010.8
20260508113938 7 104 3.2 4.8 0.00 0.00 0.00 82 1010.5
20260508112440 7 46 1.6 3.2 0.00 0.00 0.00 83 1010.8
20260508110938 6 341 0.0 1.6 0.00 0.00 0.00 88 1010.7
20260508105439 5 339 0.0 1.6 0.00 0.00 0.00 92 1010.5
20260508103938 5 338 1.6 1.6 0.00 0.00 0.00 92 1010.5
20260508102438 5 338 0.0 0.0 0.00 0.00 0.00 92 1010.5
20260508100938 5 337 0.0 0.0 0.00 0.00 0.00 94 1010.5
20260508095439 6 338 0.0 3.2 0.00 0.00 0.00 92 1010.5
20260508093939 6 333 4.8 8.0 0.00 0.00 0.00 90 1010.2
20260508092439 7 316 3.2 4.8 0.00 0.00 0.00 88 1010.2
20260508090938 7 309 4.8 4.8 0.00 0.00 0.00 88 1010.2
20260508085439 7 302 4.8 8.0 0.00 0.00 0.00 85 1010.2
20260508083939 7 294 4.8 9.7 0.00 0.00 0.00 85 1010.5
20260508082439 6 344 1.6 3.2 0.00 0.00 0.00 90 1010.5
20260508080938 7 344 1.6 3.2 0.00 0.00 0.00 88 1010.5
20260508075438 7 341 3.2 4.8 0.00 0.00 0.00 87 1010.2
20260508073939 7 333 3.2 8.0 0.00 0.00 0.00 86 1010.2
20260508072438 7 346 4.8 8.0 0.00 0.00 0.00 81 1010.5
20260508070938 8 345 1.6 4.8 0.00 0.00 0.00 80 1010.2
20260508065438 8 340 4.8 9.7 0.00 0.00 0.00 78 1010.2
20260508063938 8 333 3.2 8.0 0.00 0.00 0.00 79 1010.3
20260508062438 8 291 1.6 4.8 0.00 0.00 0.00 76 1010.4
20260508060937 9 282 1.6 3.2 0.00 0.00 0.00 71 1010.2
20260508055438 9 267 4.8 4.8 0.00 0.00 0.00 69 1010.2
20260508053939 8 259 3.2 4.8 0.00 0.00 0.00 70 1010.5
20260508052438 8 288 3.2 4.8 0.00 0.00 0.00 71 1010.8
20260508050938 8 303 3.2 3.2 0.00 0.00 0.00 70 1010.8
20260508045442 8 296 3.2 3.2 0.00 0.00 0.00 69 1010.8
20260508043939 9 290 3.2 3.2 0.00 0.00 0.00 67 1010.8
20260508042443 10 284 3.2 4.8 0.00 0.00 0.00 65 1010.5
20260508040940 10 290 4.8 8.0 0.00 0.00 0.00 63 1010.8
20260508035318 10 288 8.0 12.9 0.00 0.00 0.00 60 1011.1
20260508033817 11 282 4.8 14.5 0.00 0.00 0.00 56 1010.8